Location: Latina
(41.4670°N, 12.8670°E)
Time: 18:08:21
(UTC+02:00)

ISS - Pass Details

Date: 11 May 2021
Orbit: 417 x 422 km, 51.6° (Epoch: 18 June)

Event Time Altitude Azimuth Distance (km) Brightness Sun altitude
Rises 05:12:11 0° 308° (NW) 2,376 -0.1 -7.6°
Reaches altitude 10° 05:14:23 10° 316° (NW) 1,510 -1.1 -7.3°
Maximum altitude 05:17:36 40° 28° (NNE) 632 -2.3 -6.8°
Drops below altitude 10° 05:20:49 10° 100° (E) 1,505 -0.1 -6.3°
Sets 05:23:00 0° 108° (ESE) 2,367 0.7 -5.9°
